User: anonymous
Location: Vancouver
(49.2500°N, 123.1330°W)
Time: 06:03:08
(UTC-07:00)
Language:

Cosmos 2333 Rocket - Orbit

View from above orbital plane
View from above orbital plane
View from above satellite
View from above satellite

Ground track
Ground track

The orbit data is extracted from the following two-line orbital elements,

1 24298U 96051B   14292.51400764 -.00000065  00000-0 -88744-5 0  5806
2 24298 070.8600 310.1384 0016492 196.3996 274.6783 14.12458381934621
Epoch (UTC): 19 October 2014 12:20:10
Eccentricity: 0.0016492
inclination: 70.8600°
perigee height: 839 km
apogee height: 863 km
right ascension of ascending node: 310.1384°
argument of perigee: 196.3996°
revolutions per day: 14.12458381
mean anomaly at epoch: 274.6783°
orbit number at epoch: 93462

The dashed part of the orbit path shows where the satellite is in the earth's shadow,  

DLR